Location: Asheville, NC
(35.6000°N, 82.5500°W)
Time: 22:58:22

STARS - Pass Details

Date: 11 March 2018
Orbit: 625 x 641 km, 98.3° (Epoch: 18 March)

Event Time Altitude Azimuth Distance (km) Brightness Sun altitude
Rises 05:56:03 0° 128° (SE) 2,931 ? -23.2°
Reaches altitude 10° 05:58:50 10° 109° (ESE) 2,027 ? -22.6°
Maximum altitude 06:01:46 18° 67° (ENE) 1,582 ? -22.0°
Drops below altitude 10° 06:04:43 10° 25° (NNE) 2,034 ? -21.4°
Sets 06:07:31 0° 7° (N) 2,946 ? -20.9°
